Date String (YYYY-MM-DD hh:mm:ss) UTC,Instrument flags,absolute air pressure of the measurement (hPa),sample flow rate (lpm),inlet stack bypass flow (lpm),air temperature of the measurement (°C),ambient temperature measured by the external sensor (°C),aerosol sample conditioner tube jacket temperature (°C),OPC LED temperature (°C),internal box temperature (°C),relative humidity of the measurement (%),span deviation,mass concentration of particles derived from Lorenz-Mie calculation of OPC scattering (μg/m³),mass concentration of particles derived from Lorenz-Mie calculation of OPC scattering (μg/m³),mass concentration of particles derived from Lorenz-Mie calculation of OPC scattering (μg/m³)
DateTimeUTC,F1_M11,P_M11,Q1_M11,Q2_M11,T1_M11,T2_M11,T3_M11,T4_M11,T5_M11,U1_M11,ZSPAN_M11,X0_M11,X2_M11,X1_M11
2023-06-14 15:00:00,SystemResetWarning,0827.9,5.00,000.00,029.8,028.3,000.0,038.3,031.3,25.1,0000.0,0006.46,0002.86,0002.33
2023-06-14 15:01:00,SystemResetWarning,0827.9,5.00,000.00,029.8,028.3,000.0,038.3,031.3,25.0,0000.0,0005.71,0002.89,0002.34
2023-06-14 15:02:00,SystemResetWarning,0827.9,5.00,000.00,029.9,028.3,000.0,038.3,031.4,23.9,0000.0,0006.18,0002.94,0002.33
2023-06-14 15:03:00,SystemResetWarning,0827.9,5.00,000.00,029.9,028.3,000.0,038.3,031.4,23.8,0000.0,0007.81,0003.01,0002.34
2023-06-14 15:04:00,SystemResetWarning,0827.9,5.00,000.00,029.9,028.3,000.0,038.3,031.4,24.1,0000.0,0007.89,0003.06,0002.33
2023-06-14 15:05:00,SystemResetWarning,0827.9,5.00,000.00,029.9,028.3,000.0,038.4,031.4,23.9,0000.0,0007.93,0003.08,0002.33
2023-06-14 15:06:00,SystemResetWarning,0827.9,5.00,000.00,029.9,028.4,000.0,038.4,031.4,23.9,0000.0,0008.06,0003.12,0002.35
2023-06-14 15:07:00,SystemResetWarning,0827.8,4.99,000.00,029.9,028.4,000.0,038.4,031.4,23.2,0000.0,0008.61,0003.15,0002.35
2023-06-14 15:08:00,SystemResetWarning,0827.8,5.00,000.00,029.9,028.4,000.0,038.4,031.4,23.3,0000.0,0009.42,0003.16,0002.35
2023-06-14 15:09:00,SystemResetWarning,0827.9,5.00,000.00,029.9,028.4,000.0,038.4,031.4,23.4,0000.0,0009.63,0003.17,0002.35
2023-06-14 15:10:00,SystemResetWarning,0827.8,5.00,000.00,030.0,028.4,000.0,038.4,031.4,23.7,0000.0,0010.28,0003.17,0002.35
2023-06-14 15:11:00,SystemResetWarning,0827.8,5.00,000.00,030.0,028.4,000.0,038.4,031.5,24.3,0000.0,0010.32,0003.17,0002.34
2023-06-14 15:12:00,SystemResetWarning,0827.8,5.00,000.00,030.0,028.4,000.0,038.4,031.5,23.4,0000.0,0010.59,0003.20,0002.33
2023-06-14 15:13:00,SystemResetWarning,0827.8,5.00,000.00,030.0,028.5,000.0,038.4,031.5,23.4,0000.0,0010.48,0003.20,0002.32
2023-06-14 15:14:00,SystemResetWarning,0827.8,5.00,000.00,030.0,028.5,000.0,038.5,031.5,23.5,0000.0,0009.55,0003.19,0002.31
2023-06-14 15:15:00,SystemResetWarning,0827.8,5.01,000.00,030.0,028.5,000.0,038.5,031.5,23.0,0000.0,0009.38,0003.20,0002.31
2023-06-14 15:16:00,SystemResetWarning,0827.8,5.00,000.00,030.0,028.5,000.0,038.5,031.5,23.7,0000.0,0009.62,0003.21,0002.30
2023-06-14 15:17:00,SystemResetWarning,0827.8,5.00,000.00,030.0,028.5,000.0,038.5,031.5,24.0,0000.0,0009.61,0003.21,0002.28
2023-06-14 15:18:00,SystemResetWarning,0827.8,5.00,000.00,030.0,028.5,000.0,038.5,031.5,22.2,0000.0,0009.33,0003.21,0002.26
2023-06-14 15:19:00,SystemResetWarning,0827.8,5.00,000.00,030.1,028.5,000.0,038.5,031.5,23.9,0000.0,0008.50,0003.22,0002.25
2023-06-14 15:20:00,SystemResetWarning,0827.8,4.99,000.00,030.1,028.5,000.0,038.5,031.5,23.9,0000.0,0008.85,0003.26,0002.25
2023-06-14 15:21:00,SystemResetWarning,0827.8,5.00,000.00,030.1,028.5,000.0,038.5,031.5,23.7,0000.0,0008.43,0003.31,0002.29
2023-06-14 15:22:00,SystemResetWarning,0827.8,5.00,000.00,030.1,028.5,000.0,038.5,031.6,25.0,0000.0,0008.40,0003.33,0002.30
2023-06-14 15:23:00,SystemResetWarning,0827.8,5.00,000.00,030.1,028.6,000.0,038.6,031.6,24.2,0000.0,0008.27,0003.32,0002.31
2023-06-14 15:24:00,SystemResetWarning,0827.8,5.01,000.00,030.1,028.6,000.0,038.6,031.6,23.9,0000.0,0007.87,0003.31,0002.31
2023-06-14 15:25:00,SystemResetWarning,0827.9,5.01,000.00,030.1,028.6,000.0,038.6,031.6,24.2,0000.0,0007.92,0003.31,0002.30
2023-06-14 15:26:00,SystemResetWarning,0827.8,5.00,000.00,030.1,028.6,000.0,038.6,031.6,24.3,0000.0,0008.18,0003.31,0002.31
2023-06-14 15:27:00,SystemResetWarning,0827.8,5.00,000.00,030.1,028.6,000.0,038.6,031.6,24.2,0000.0,0008.88,0003.31,0002.32
2023-06-14 15:28:00,SystemResetWarning,0827.8,4.99,000.00,030.2,028.6,000.0,038.6,031.7,25.3,0000.0,0009.06,0003.31,0002.34
2023-06-14 15:29:00,SystemResetWarning,0827.8,4.99,000.00,030.2,028.6,000.0,038.6,031.7,25.0,0000.0,0009.42,0003.37,0002.37
2023-06-14 15:30:00,SystemResetWarning,0827.7,5.00,000.00,030.2,028.6,000.0,038.6,031.7,25.7,0000.0,0009.37,0003.39,0002.41
2023-06-14 15:31:00,SystemResetWarning,0827.8,5.00,000.00,030.2,028.7,000.0,038.7,031.7,25.0,0000.0,0009.21,0003.40,0002.42
2023-06-14 15:32:00,SystemResetWarning,0827.8,5.01,000.00,030.2,028.7,000.0,038.7,031.7,25.5,0000.0,0009.33,0003.41,0002.41
2023-06-14 15:33:00,SystemResetWarning,0827.8,5.00,000.00,030.2,028.7,000.0,038.7,031.7,24.8,0000.0,0009.23,0003.38,0002.41
2023-06-14 15:34:00,SystemResetWarning,0827.7,5.00,000.00,030.2,028.7,000.0,038.7,031.7,24.8,0000.0,0009.31,0003.41,0002.41
2023-06-14 15:35:00,SystemResetWarning,0827.8,5.00,000.00,030.2,028.7,000.0,038.7,031.7,24.9,0000.0,0009.67,0003.44,0002.43
2023-06-14 15:36:00,SystemResetWarning,0827.8,5.00,000.00,030.2,028.7,000.0,038.7,031.7,24.9,0000.0,0009.84,0003.45,0002.46
2023-06-14 15:37:00,SystemResetWarning,0827.7,5.00,000.00,030.2,028.7,000.0,038.7,031.7,25.5,0000.0,0009.61,0003.47,0002.47
2023-06-14 15:38:00,SystemResetWarning,0827.8,5.00,000.00,030.2,028.7,000.0,038.7,031.8,24.6,0000.0,0009.37,0003.47,0002.45
2023-06-14 15:39:00,SystemResetWarning,0827.8,5.00,000.00,030.3,028.7,000.0,038.7,031.8,24.2,0000.0,0008.96,0003.45,0002.45
2023-06-14 15:40:00,SystemResetWarning,0827.8,4.99,000.00,030.3,028.7,000.0,038.8,031.7,23.4,0000.0,0008.47,0003.36,0002.43
2023-06-14 15:41:00,SystemResetWarning,0827.8,5.00,000.00,030.3,028.8,000.0,038.8,031.8,24.1,0000.0,0008.47,0003.33,0002.42
2023-06-14 15:42:00,SystemResetWarning,0827.8,4.99,000.00,030.3,028.8,000.0,038.8,031.8,24.4,0000.0,0008.24,0003.26,0002.39
2023-06-14 15:43:00,SystemResetWarning,0827.8,5.00,000.00,030.3,028.8,000.0,038.8,031.8,22.8,0000.0,0007.77,0003.19,0002.37
2023-06-14 15:44:00,SystemResetWarning,0827.8,5.01,000.00,030.3,028.8,000.0,038.8,031.8,22.7,0000.0,0007.90,0003.16,0002.34
2023-06-14 15:45:00,SystemResetWarning,0827.8,5.01,000.00,030.3,028.8,000.0,038.8,031.8,22.8,0000.0,0007.82,0003.12,0002.33
2023-06-14 15:46:00,SystemResetWarning,0827.8,4.99,000.00,030.3,028.8,000.0,038.8,031.9,22.7,0000.0,0007.50,0003.04,0002.29
2023-06-14 15:47:00,SystemResetWarning,0827.8,5.00,000.00,030.4,028.8,000.0,038.8,031.9,22.7,0000.0,0007.09,0002.98,0002.25
2023-06-14 15:48:00,SystemResetWarning,0827.8,5.00,000.00,030.4,027.5,000.0,038.8,032.0,21.5,0000.0,0006.78,0002.87,0002.22
2023-06-14 15:49:00,SystemResetWarning,0827.8,5.00,000.00,030.4,025.9,000.0,038.7,031.9,22.4,0000.0,0005.23,0002.78,0002.19
2023-06-14 15:50:00,SystemResetWarning,0827.8,5.01,000.00,030.4,025.9,000.0,038.7,031.8,22.3,0000.0,0004.93,0002.76,0002.17
2023-06-14 15:51:00,SystemResetWarning,0827.7,5.01,000.00,030.2,026.2,000.0,038.7,031.4,22.2,0000.0,0005.47,0002.73,0002.16
2023-06-14 15:52:00,SystemResetWarning,0827.8,4.98,000.00,030.1,026.5,000.0,038.7,031.3,23.2,0000.0,0006.22,0002.76,0002.15
2023-06-14 15:53:00,SystemResetWarning,0827.7,4.99,000.00,030.1,026.8,000.0,038.7,031.3,23.1,0000.0,0006.37,0002.78,0002.15
2023-06-14 15:54:00,SystemResetWarning,0827.8,5.01,000.00,030.0,027.1,000.0,038.7,031.3,23.1,0000.0,0006.48,0002.79,0002.15
2023-06-14 15:55:00,SystemResetWarning,0827.7,5.01,000.00,030.0,027.4,000.0,038.6,031.3,23.5,0000.0,0006.11,0002.79,0002.16
2023-06-14 15:56:00,SystemResetWarning,0827.8,5.00,000.00,030.0,027.6,000.0,038.6,031.3,24.7,0000.0,0007.40,0002.80,0002.16
2023-06-14 15:57:00,SystemResetWarning,0827.7,4.99,000.00,030.0,027.7,000.0,038.6,031.4,25.1,0000.0,0008.30,0002.80,0002.18
2023-06-14 15:58:00,SystemResetWarning,0827.7,5.00,000.00,030.0,027.9,000.0,038.6,031.4,25.1,0000.0,0008.20,0002.78,0002.19
2023-06-14 15:59:00,SystemResetWarning,0827.8,5.00,000.00,030.0,028.0,000.0,038.6,031.4,25.4,0000.0,0008.27,0002.83,0002.23
